Location: Lecco
(45.8566°N, 9.3977°E)
Time: 09:55:43
(UTC+02:00)

S-56A Canister/Altair - Pass Details

Date: 29 July 2019
Orbit: 633 x 2499 km, 38.9° (Epoch: 24 August)

Event Time Altitude Azimuth Distance (km) Brightness Sun altitude
Rises 11:38:31 0° 281° (W) 5,541 11.6 54.6°
Reaches altitude 10° 11:42:17 10° 273° (W) 4,742 11.4 55.1°
Maximum altitude 11:54:11 36° 215° (SW) 3,447 11.4 56.6°
Drops below altitude 10° 12:06:57 10° 156° (SSE) 5,063 12.4 58.1°
Sets 12:11:11 0° 149° (SSE) 5,945 12.5 58.5°
